Location: New Canada
(47.1017°N, 68.5042°W)
Time: 17:19:47
(UTC+00:00)

RS-44 - Pass Details

Date: 24 April 2024
Orbit: 1174 x 1511 km, 82.5° (Epoch: 20 May)

Event Time Altitude Azimuth Distance (km) Brightness Sun altitude
Rises 00:18:49 0° 191° (S) 4,631 ? -7.7°
Reaches altitude 10° 00:21:45 10° 192° (SSW) 3,640 ? -8.1°
Maximum altitude 00:30:35 80° 280° (W) 1,474 ? -9.4°
Drops below altitude 10° 00:38:57 10° 8° (N) 3,461 ? -10.6°
Sets 00:41:42 0° 10° (N) 4,394 ? -11.0°
